When you browse on this site, cookies collect data to enhance your experience and personalize the content and advertising you see.
Visit our Privacy Policy to learn more. By continuing to use the site, you agree to this use of cookies and data.
  • In United Kingdom
  • List of Countries
  • For 7 days
  • Water Temperature
  • Weather Map
  • Weather Widgets
  • user-avatar
    Login

    Hourly Weather Tarija

    Today, 16 October, Wednesday

    Time Temperature Precipitation Wind Pressure Humidity
    00:00 +15°C° 0 mm 1 mps 598 mmHg 83%
    01:00 +15°C° 0 mm 1 mps 598 mmHg 84%
    02:00 +15°C° 0 mm 1 mps 598 mmHg 83%
    03:00 +14°C° 0 mm 1 mps 598 mmHg 85%
    04:00 +14°C° 0 mm 1 mps 597 mmHg 86%
    05:00 +14°C° 0 mm 1 mps 597 mmHg 87%
    06:00 +14°C° 0 mm 1 mps 598 mmHg 83%
    07:00 +15°C° 0 mm 1 mps 599 mmHg 80%
    08:00 +16°C° 0 mm 1 mps 599 mmHg 76%
    09:00 +17°C° 0 mm 2 mps 599 mmHg 70%
    10:00 +19°C° 0 mm 2 mps 599 mmHg 63%
    11:00 +21°C° 0 mm 2 mps 600 mmHg 56%
    12:00 +22°C° 0 mm 3 mps 599 mmHg 53%
    13:00 +24°C° 0 mm 3 mps 598 mmHg 50%
    14:00 +25°C° 0 mm 3 mps 598 mmHg 47%
    15:00 +24°C° 0 mm 3 mps 597 mmHg 52%
    16:00 +22°C° 0 mm 3 mps 596 mmHg 56%
    17:00 +21°C° 0 mm 3 mps 595 mmHg 61%
    18:00 +19°C° 0 mm 3 mps 595 mmHg 66%
    19:00 +18°C° 0 mm 3 mps 596 mmHg 71%
    20:00 +17°C° 0 mm 2 mps 596 mmHg 76%
    21:00 +17°C° 0 mm 2 mps 596 mmHg 77%
    22:00 +16°C° 0 mm 2 mps 596 mmHg 78%
    23:00 +16°C° 0 mm 2 mps 596 mmHg 80%

    Tomorrow, 17 October, Thursday

    Time Temperature Precipitation Wind Pressure Humidity
    00:00 +16°C° 0 mm 2 mps 596 mmHg 81%
    01:00 +16°C° 0 mm 2 mps 596 mmHg 81%
    02:00 +16°C° 0 mm 2 mps 596 mmHg 82%
    03:00 +16°C° 0 mm 2 mps 596 mmHg 83%
    04:00 +15°C° 0 mm 2 mps 596 mmHg 84%
    05:00 +15°C° 0 mm 1 mps 596 mmHg 85%
    06:00 +16°C° 0 mm 2 mps 597 mmHg 80%
    07:00 +17°C° 0 mm 2 mps 598 mmHg 75%
    08:00 +18°C° 0 mm 2 mps 599 mmHg 69%
    09:00 +20°C° 0 mm 2 mps 599 mmHg 61%
    10:00 +23°C° 0 mm 2 mps 599 mmHg 53%
    11:00 +24°C° 0 mm 2 mps 599 mmHg 45%
    12:00 +25°C° 0 mm 3 mps 599 mmHg 43%
    13:00 +26°C° 0 mm 4 mps 599 mmHg 42%
    14:00 +27°C° 0 mm 4 mps 598 mmHg 41%
    15:00 +25°C° 0 mm 4 mps 597 mmHg 49%
    16:00 +23°C° 0 mm 4 mps 596 mmHg 57%
    17:00 +21°C° 0 mm 4 mps 595 mmHg 65%
    18:00 +20°C° 0.1 mm 3 mps 596 mmHg 70%
    19:00 +19°C° 0.1 mm 3 mps 596 mmHg 75%
    20:00 +18°C° 0.1 mm 2 mps 597 mmHg 79%
    21:00 +18°C° 0.1 mm 2 mps 597 mmHg 81%
    22:00 +18°C° 0.1 mm 2 mps 597 mmHg 83%
    23:00 +17°C° 0.1 mm 2 mps 598 mmHg 85%

    Day after tomorrow, 18 October, Friday

    Time Temperature Precipitation Wind Pressure Humidity
    00:00 +18°C° 0 mm 1 mps 597 mmHg 86%
    01:00 +18°C° 0 mm 1 mps 597 mmHg 87%
    02:00 +18°C° 0 mm 1 mps 597 mmHg 88%
    03:00 +16°C° 0.1 mm 1 mps 597 mmHg 89%
    04:00 +16°C° 0.1 mm 2 mps 597 mmHg 90%
    05:00 +16°C° 0.1 mm 2 mps 597 mmHg 91%
    06:00 +16°C° 0.1 mm 2 mps 598 mmHg 91%
    07:00 +15°C° 0.1 mm 2 mps 598 mmHg 91%
    08:00 +15°C° 0.1 mm 2 mps 598 mmHg 92%
    09:00 +15°C° 0 mm 2 mps 598 mmHg 90%
    10:00 +16°C° 0 mm 2 mps 598 mmHg 88%
    11:00 +16°C° 0 mm 2 mps 598 mmHg 86%
    12:00 +16°C° 0 mm 2 mps 597 mmHg 84%
    13:00 +17°C° 0 mm 2 mps 597 mmHg 82%
    14:00 +17°C° 0 mm 2 mps 596 mmHg 80%
    15:00 +17°C° 0.2 mm 2 mps 596 mmHg 82%
    16:00 +16°C° 0.2 mm 2 mps 596 mmHg 84%
    17:00 +16°C° 0.2 mm 2 mps 595 mmHg 86%
    18:00 +15°C° 0.2 mm 2 mps 596 mmHg 87%
    19:00 +15°C° 0.2 mm 1 mps 596 mmHg 89%
    20:00 +15°C° 0.2 mm 1 mps 597 mmHg 90%
    21:00 +15°C° 1 mm 1 mps 597 mmHg 91%
    22:00 +14°C° 1 mm 1 mps 597 mmHg 92%
    23:00 +14°C° 1 mm 2 mps 598 mmHg 94%

    19 October, Saturday

    Time Temperature Precipitation Wind Pressure Humidity
    00:00 +14°C° 1.7 mm 1 mps 598 mmHg 94%
    01:00 +14°C° 1.7 mm 1 mps 598 mmHg 94%
    02:00 +14°C° 1.7 mm 1 mps 597 mmHg 94%
    03:00 +14°C° 2.3 mm 1 mps 598 mmHg 94%
    04:00 +14°C° 2.3 mm 1 mps 598 mmHg 95%
    05:00 +13°C° 2.3 mm 1 mps 598 mmHg 95%
    06:00 +14°C° 1.3 mm 1 mps 598 mmHg 93%
    07:00 +14°C° 1.3 mm 1 mps 599 mmHg 92%
    08:00 +14°C° 1.3 mm 1 mps 599 mmHg 91%
    09:00 +15°C° 0 mm 2 mps 599 mmHg 88%
    10:00 +15°C° 0 mm 2 mps 599 mmHg 86%
    11:00 +16°C° 0 mm 2 mps 598 mmHg 84%
    12:00 +16°C° 0 mm 2 mps 598 mmHg 81%
    13:00 +17°C° 0 mm 2 mps 598 mmHg 78%
    14:00 +18°C° 0 mm 2 mps 597 mmHg 75%
    15:00 +17°C° 0 mm 2 mps 596 mmHg 77%
    16:00 +17°C° 0 mm 2 mps 596 mmHg 79%
    17:00 +16°C° 0 mm 2 mps 595 mmHg 82%
    18:00 +16°C° 0 mm 2 mps 595 mmHg 84%
    19:00 +15°C° 0 mm 2 mps 595 mmHg 87%
    20:00 +15°C° 0 mm 2 mps 595 mmHg 90%
    21:00 +15°C° 0 mm 1 mps 596 mmHg 89%
    22:00 +15°C° 0 mm 1 mps 596 mmHg 89%
    23:00 +15°C° 0 mm 1 mps 596 mmHg 88%

    20 October, Sunday

    Time Temperature Precipitation Wind Pressure Humidity
    00:00 +15°C° 0 mm 1 mps 596 mmHg 89%
    01:00 +14°C° 0 mm 1 mps 596 mmHg 90%
    02:00 +14°C° 0 mm 1 mps 595 mmHg 90%
    03:00 +14°C° 0 mm 1 mps 595 mmHg 88%
    04:00 +14°C° 0 mm 1 mps 595 mmHg 86%
    05:00 +14°C° 0 mm 1 mps 595 mmHg 85%
    06:00 +15°C° 0 mm 1 mps 596 mmHg 74%
    07:00 +17°C° 0 mm 2 mps 596 mmHg 64%
    08:00 +18°C° 0 mm 2 mps 597 mmHg 53%
    09:00 +20°C° 0 mm 2 mps 598 mmHg 46%
    10:00 +21°C° 0 mm 3 mps 598 mmHg 39%
    11:00 +24°C° 0 mm 3 mps 598 mmHg 32%
    12:00 +25°C° 0 mm 3 mps 598 mmHg 33%
    13:00 +25°C° 0 mm 4 mps 597 mmHg 34%
    14:00 +26°C° 0 mm 5 mps 597 mmHg 35%
    15:00 +23°C° 0 mm 4 mps 596 mmHg 45%
    16:00 +21°C° 0 mm 4 mps 595 mmHg 56%
    17:00 +20°C° 0 mm 3 mps 595 mmHg 66%
    18:00 +18°C° 0 mm 3 mps 595 mmHg 72%
    19:00 +17°C° 0 mm 3 mps 595 mmHg 77%
    20:00 +16°C° 0 mm 2 mps 596 mmHg 83%
    21:00 +16°C° 0 mm 2 mps 596 mmHg 84%
    22:00 +16°C° 0 mm 2 mps 597 mmHg 85%
    23:00 +15°C° 0 mm 1 mps 597 mmHg 86%

    21 October, Monday

    Time Temperature Precipitation Wind Pressure Humidity
    00:00 +15°C° 0 mm 1 mps 597 mmHg 88%
    01:00 +15°C° 0 mm 1 mps 596 mmHg 89%
    02:00 +14°C° 0 mm 1 mps 596 mmHg 90%
    03:00 +14°C° 0 mm 1 mps 596 mmHg 90%
    04:00 +14°C° 0 mm 1 mps 597 mmHg 90%
    05:00 +14°C° 0 mm 1 mps 597 mmHg 89%
    06:00 +14°C° 0 mm 2 mps 597 mmHg 88%
    07:00 +14°C° 0 mm 2 mps 598 mmHg 87%
    08:00 +13°C° 0 mm 2 mps 598 mmHg 85%
    09:00 +14°C° 0 mm 2 mps 598 mmHg 80%
    10:00 +15°C° 0 mm 2 mps 598 mmHg 74%
    11:00 +16°C° 0 mm 2 mps 598 mmHg 68%
    12:00 +17°C° 0 mm 3 mps 598 mmHg 64%
    13:00 +18°C° 0 mm 3 mps 597 mmHg 59%
    14:00 +19°C° 0 mm 3 mps 597 mmHg 55%
    15:00 +18°C° 0 mm 3 mps 597 mmHg 55%
    16:00 +18°C° 0 mm 4 mps 596 mmHg 56%
    17:00 +18°C° 0 mm 4 mps 596 mmHg 56%
    18:00 +17°C° 0 mm 3 mps 597 mmHg 58%
    19:00 +16°C° 0 mm 3 mps 597 mmHg 60%
    20:00 +15°C° 0 mm 2 mps 598 mmHg 62%
    21:00 +14°C° 0 mm 2 mps 598 mmHg 64%
    22:00 +14°C° 0 mm 1 mps 598 mmHg 65%
    23:00 +13°C° 0 mm 1 mps 598 mmHg 66%
    Show more